Weather in Gorakhpur

India     26°45′40″N   83°22′21″E
temp.,
°C
wind,
m/s
gust,
m/s
humid.,
%
clouds,
%
prec.,
mm/h
press.,
hPa
HPBL,
m
25 february, thu
thu2523:30+19nw23340 0.0 100924
02:30+16wnw23390 0.0 100823
05:30+14wnw33420 0.0 100725
08:30+21w47320 0.0 1009351
11:30+30w68200 0.0 10091027
14:30+35wnw914130 0.0 10052963
17:30+30w511200 0.0 1004260
20:30+24wsw48230 0.0 1005125
26 february, fri
fri2623:30+21wnw48270 0.0 1005119
02:30+19wnw34340 0.0 100374
05:30+16w33380 0.0 100427
08:30+22w24310 0.0 1007289
11:30+31w59180 0.0 10071231
14:30+34wnw711120 0.0 10032513
17:30+29wnw34190 0.0 100371
20:30+22wsw23270 0.0 100628
27 february, sat
sat2723:30+18wsw01330 0.0 100623
02:30+17wnw22350 0.0 100423
05:30+16wnw23370 0.0 100423
08:30+22wnw24310 0.0 1007242
11:30+31wnw34200 0.0 1007930
14:30+35wnw611160 0.0 10043043
17:30+32w512170 0.0 1003338
20:30+26w515240 0.0 1006299
28 february, sun
sun2823:30+22wnw34290 0.0 100646
02:30+20nw34350 0.0 100636
05:30+17nnw23430 0.0 100623
08:30+23wnw23330 0.0 1009207
11:30+34nw614140 0.0 10082992
14:30+36wnw1014120 0.0 10053704
17:30+32w612170 0.0 1005480
20:30+27w513220 0.0 1008258
1 march, mon
mon123:30+21wnw45310 0.0 100894
02:30+21wnw48290 0.0 1007115
05:30+20wnw34280 0.0 100741
08:30+27w24220 0.0 1010259
11:30+35wnw610140 0.0 10101713
14:30+37wnw711130 0.0 10073880
17:30+32wnw48190 0.0 1006165
20:30+27wnw48230 0.0 1009113